Theta_e
324 327 330 330 329 328 327 327 327 328 328 329 329 328 327 328 326 324 323 317 315 320 322 322 321 320 319 316 315 317 317 315 315 315 315 317 318 319 321 323 323 325 327 330 332 333 333 333 333 333 333 333 333 333 333 332 332 332 332 333 333 332 332 332 332 332 332 332 332 332 332 332 332 332 332 332 332 331 331 330 330 330 330 330 329 329
326 330 330 328 327 327 326 326 326 327 328 329 328 328 328 327 327 325 322 317 314 319 324 323 323 322 320 317 315 315 316 316 315 315 315 315 317 318 320 322 323 324 326 330 332 333 334 333 333 333 333 333 333 332 333 333 332 332 332 332 332 332 332 332 332 332 333 332 333 333 332 333 332 332 332 332 332 331 331 331 331 331 331 330 330 329
329 330 328 326 326 326 326 326 326 328 328 329 329 329 329 328 327 325 321 317 314 318 322 322 322 322 320 319 318 316 315 316 315 315 315 315 315 317 318 320 322 324 326 329 331 333 333 334 334 333 333 333 332 332 332 333 333 332 332 332 332 332 332 332 332 332 332 332 333 333 333 333 333 333 333 333 332 332 332 331 331 331 331 331 330 330
331 329 326 325 325 326 327 326 327 329 329 329 328 329 329 328 327 326 322 316 314 317 320 320 319 320 320 319 319 319 318 317 317 315 315 316 315 316 317 319 320 322 326 327 329 331 332 334 334 333 333 332 332 332 332 332 333 333 332 332 332 332 332 332 332 332 332 332 332 333 333 333 333 334 334 333 333 332 332 332 332 332 331 331 331 330
330 327 325 326 326 326 328 328 327 328 329 328 328 328 328 327 326 326 321 316 315 316 316 316 318 319 320 321 320 321 321 320 319 318 316 316 316 316 317 319 319 321 323 325 326 328 330 331 333 333 333 332 331 331 332 332 333 333 333 333 333 333 333 333 332 332 332 333 333 333 333 334 334 334 334 334 333 333 332 332 332 332 331 331 331 330
328 325 325 326 327 327 328 328 327 328 328 328 327 327 327 327 326 325 322 319 322 323 317 315 321 324 322 322 322 322 324 323 322 320 317 316 316 316 317 317 319 320 321 321 322 326 329 330 331 332 332 332 332 331 332 332 332 333 333 333 333 333 333 333 333 332 332 333 333 333 333 333 334 334 334 334 333 333 333 333 333 333 332 331 331 330
327 325 326 327 328 329 329 328 327 327 328 329 327 325 326 327 326 325 323 323 327 328 319 314 321 324 322 322 323 323 324 325 325 322 317 317 316 316 316 317 318 318 319 320 320 322 327 329 329 331 332 332 332 332 332 333 333 332 333 333 333 333 334 334 334 333 332 332 333 333 333 333 333 333 333 333 333 332 332 333 332 332 332 332 331 330
327 326 328 328 328 330 329 329 328 326 328 330 326 324 325 325 326 326 324 324 325 324 320 315 318 321 321 321 321 321 322 323 325 324 319 317 317 316 316 316 317 317 318 320 320 320 323 327 328 328 330 331 331 332 333 333 333 333 333 333 333 334 334 334 334 334 332 332 333 333 333 332 332 332 332 332 332 332 332 332 331 332 332 331 331 330
326 327 328 327 329 331 329 329 327 326 328 328 324 323 324 324 326 326 326 325 321 321 325 323 319 320 322 321 320 320 320 321 323 323 321 319 317 317 316 316 317 317 318 319 320 319 320 323 325 326 327 329 330 331 332 332 332 333 333 333 333 333 333 334 334 334 333 332 332 332 332 332 332 332 332 332 332 331 332 332 332 332 332 332 331 331
325 326 327 327 329 330 327 327 326 325 326 324 323 324 324 324 325 323 325 323 319 321 326 327 322 322 324 321 320 320 319 319 321 321 321 320 318 318 316 316 316 316 318 319 319 319 319 320 321 323 324 326 328 329 330 330 331 332 333 333 333 333 333 333 333 333 334 332 331 332 332 332 332 331 332 332 332 332 331 332 332 332 332 332 331 331
322 323 325 326 327 327 325 325 325 325 323 321 323 324 323 323 321 321 322 319 321 326 325 324 323 322 324 323 321 322 321 319 320 320 322 322 320 319 316 317 317 315 317 319 318 318 319 319 318 320 321 322 324 326 327 329 330 331 332 332 332 332 333 333 333 333 333 333 332 331 332 332 332 332 332 332 332 332 332 332 332 332 332 331 330 330
322 325 326 323 321 324 326 324 321 320 320 321 322 323 322 321 319 320 320 318 325 329 321 320 323 322 323 324 321 323 322 320 319 320 321 321 321 320 318 317 317 316 318 318 318 317 317 318 317 317 317 318 320 323 325 327 329 330 331 332 332 332 332 332 332 332 333 333 333 331 331 332 332 332 331 332 332 332 332 332 332 332 331 330 329 329
325 325 323 319 319 323 326 323 318 316 318 320 321 322 324 323 322 324 322 320 326 326 315 314 319 320 322 322 320 322 321 320 319 318 319 320 320 320 319 318 319 320 320 318 317 317 317 318 317 316 315 315 316 318 321 324 326 328 329 330 331 331 331 332 332 332 332 332 332 332 331 331 331 331 331 332 332 332 332 332 332 332 331 329 328 329
326 323 321 320 321 321 324 324 320 317 317 319 320 323 326 325 326 329 326 323 326 322 314 313 317 320 321 319 319 320 319 319 318 317 318 319 319 319 319 319 321 321 320 318 318 319 319 319 317 316 315 313 313 314 317 319 321 324 326 328 329 329 330 331 331 331 331 331 331 331 331 331 331 331 331 331 331 332 332 331 331 331 331 329 329 329
328 326 322 322 322 322 323 324 322 318 316 317 319 323 326 324 326 331 327 326 328 322 315 316 320 323 321 317 316 315 315 314 314 315 316 316 317 318 317 317 317 316 314 315 317 316 316 315 314 314 314 313 313 312 313 315 316 319 322 324 326 327 329 329 330 330 330 330 330 330 330 330 330 331 331 331 331 331 331 331 331 331 330 330 330 330
327 326 321 320 319 321 324 322 317 316 316 317 318 322 326 324 324 326 322 321 324 321 317 317 319 321 319 318 316 315 315 313 312 313 313 314 314 316 316 315 315 314 313 314 314 313 312 312 311 311 311 312 312 312 312 313 314 315 318 321 323 325 327 328 328 329 329 329 329 330 330 329 330 330 331 331 331 331 330 330 330 330 330 329 330 330
326 324 319 318 319 320 323 319 314 318 320 317 318 321 322 321 321 323 320 316 319 324 323 318 318 319 318 320 319 318 319 316 313 312 312 313 314 315 316 316 317 318 318 316 314 313 313 313 312 311 311 312 312 312 311 311 312 313 316 320 322 324 326 327 327 328 328 328 329 329 329 329 329 330 330 331 331 330 330 330 330 330 329 328 330 330
325 322 316 317 321 320 318 317 315 319 320 317 318 320 318 319 320 322 323 321 321 326 326 321 320 320 319 320 319 319 320 319 316 313 312 313 314 314 316 317 318 321 323 319 314 313 313 315 315 314 313 313 312 312 312 311 312 312 315 318 320 323 324 326 327 327 328 328 328 328 328 328 329 329 330 330 331 330 330 329 330 329 328 328 330 330
322 321 316 315 318 318 315 318 319 319 316 316 318 319 319 323 324 322 325 326 325 326 326 322 321 320 319 318 318 318 319 318 318 316 314 313 313 314 315 316 316 319 322 320 316 315 315 317 317 316 315 314 313 313 312 312 312 312 314 317 319 321 323 325 326 327 327 327 327 327 327 328 328 328 329 330 330 329 329 329 329 328 327 328 329 329
320 322 320 315 314 317 317 320 322 320 316 314 317 318 319 323 323 323 324 324 325 325 326 324 322 320 319 319 318 319 319 317 318 317 316 315 315 315 314 314 315 316 317 318 317 316 316 316 316 314 314 313 312 311 311 311 312 312 313 315 317 320 322 324 325 326 326 325 325 326 326 327 327 328 328 329 329 328 328 328 329 327 327 328 328 327
319 321 321 315 313 318 321 321 321 320 317 315 317 319 320 319 319 321 322 322 323 324 325 327 325 321 318 319 319 319 319 319 319 318 317 317 315 314 313 314 315 315 315 315 315 314 313 313 314 313 312 312 310 309 309 310 310 311 312 313 315 317 319 321 323 324 323 323 323 324 325 326 326 327 327 328 328 328 328 328 328 327 327 327 327 327
320 319 319 316 316 320 320 316 316 317 317 317 317 318 320 319 319 322 324 322 321 324 325 325 325 321 317 317 318 318 318 318 318 318 318 317 314 312 314 315 314 314 313 312 312 311 311 312 313 312 311 310 309 308 308 308 309 310 311 313 314 315 317 319 320 320 320 321 321 323 324 324 325 326 326 327 327 327 327 327 327 327 327 326 326 327
317 317 317 317 317 318 314 311 311 314 315 317 317 318 320 319 320 324 326 324 321 322 322 320 322 322 315 314 316 316 317 315 315 316 315 315 313 312 314 314 313 313 311 310 309 309 310 311 312 311 310 309 308 308 308 308 309 311 312 313 314 315 316 318 318 318 318 319 320 321 323 324 324 325 326 326 326 327 327 327 327 327 327 326 326 326
317 317 318 317 315 314 312 311 311 312 315 318 318 318 319 320 321 322 321 320 320 322 321 321 324 324 315 314 316 315 315 314 312 312 312 312 312 312 313 312 312 312 311 310 309 309 310 311 310 310 310 309 308 308 309 310 311 312 312 312 313 314 315 316 316 316 316 317 318 320 321 322 323 324 324 325 325 326 326 326 326 326 326 326 325 326
319 318 318 318 318 317 316 316 315 314 315 318 319 318 319 320 322 320 316 315 318 321 321 322 325 324 316 316 316 313 312 312 311 311 311 311 313 313 312 312 311 311 310 310 310 310 310 310 310 310 311 311 310 309 310 311 312 312 312 312 312 312 313 313 314 314 314 314 315 317 319 320 321 322 323 324 324 324 325 325 325 325 325 325 324 325
319 318 318 319 320 321 321 320 320 317 316 317 319 319 319 320 321 319 317 318 319 320 320 321 323 322 316 314 313 311 311 312 311 311 310 310 311 312 312 313 313 313 313 312 312 312 311 310 311 311 311 311 311 310 310 311 312 311 311 312 311 311 311 311 311 312 312 312 312 314 315 317 319 320 321 322 323 323 324 324 324 324 324 324 323 323
318 318 318 319 319 320 320 320 319 318 317 317 319 320 320 320 321 320 320 321 320 320 321 320 320 321 318 314 313 312 313 313 313 312 311 310 311 311 312 314 313 313 314 313 312 313 313 312 311 311 311 311 311 311 311 311 310 310 310 310 310 310 310 309 309 309 309 310 310 310 311 313 316 318 319 320 321 322 322 322 322 322 322 322 322 321
318 318 318 319 319 318 318 318 317 317 318 318 318 319 319 318 320 321 321 321 321 322 323 322 321 322 321 317 316 315 314 314 314 312 310 311 311 312 313 313 312 313 315 316 316 317 316 315 313 311 311 311 310 310 310 310 309 309 309 309 309 309 309 308 307 307 307 308 308 308 309 309 311 314 317 318 319 319 320 320 320 320 320 320 320 319
320 319 319 320 320 318 317 316 317 317 317 317 317 318 317 317 319 320 320 320 321 323 324 322 322 323 321 319 318 316 315 315 314 312 311 310 311 312 312 312 313 314 314 317 319 319 318 317 315 313 312 311 310 310 309 308 308 308 308 308 308 307 308 307 306 306 307 308 308 309 309 309 310 311 313 315 317 317 317 318 318 318 318 318 317 317
320 319 320 321 320 319 318 317 317 318 318 318 317 317 316 317 317 318 319 319 320 321 321 321 322 322 320 320 319 318 317 315 312 310 310 311 312 312 313 313 313 313 313 314 316 317 318 317 315 313 313 312 311 310 309 308 308 307 307 307 307 307 307 307 307 306 307 308 309 310 310 311 311 311 312 314 315 316 316 316 316 316 316 315 314 314
319 320 320 320 318 317 318 318 318 318 319 319 318 317 316 316 317 317 318 319 319 320 320 320 322 321 320 319 319 318 318 316 313 311 310 310 311 312 312 313 313 313 314 313 314 317 318 317 315 314 313 312 311 310 310 309 308 308 307 307 306 306 307 308 307 307 308 309 309 310 310 311 311 311 312 313 313 314 315 315 314 314 314 313 311 311
318 320 320 318 317 316 316 318 319 318 319 319 319 318 317 317 317 317 318 318 319 319 320 321 321 320 319 318 318 318 317 316 315 314 313 314 313 313 313 313 313 314 314 314 314 317 319 318 318 318 315 313 311 311 310 309 308 308 307 307 306 306 306 308 307 307 308 309 309 309 309 309 309 310 311 311 312 312 312 312 312 312 311 310 310 309
317 319 318 318 319 317 317 318 318 318 319 319 319 318 318 317 317 317 317 317 317 318 319 320 320 319 318 317 317 317 316 316 315 315 315 316 315 315 315 315 315 315 315 314 314 316 318 318 318 317 315 312 311 310 309 308 308 308 307 307 306 305 305 307 308 307 308 309 309 309 308 308 308 309 309 310 310 310 310 310 310 310 309 309 309 309
318 318 317 318 318 317 317 318 318 319 320 320 318 318 318 318 318 318 318 317 316 317 318 318 318 318 317 316 316 316 315 314 315 315 315 315 315 316 315 315 316 316 316 316 315 315 316 317 316 314 312 311 310 309 308 307 307 307 307 306 306 304 304 306 308 308 308 308 309 309 308 307 307 308 308 308 308 308 308 308 308 307 307 307 307 306
317 317 317 318 317 315 316 318 319 320 320 319 319 318 317 317 317 318 318 317 316 316 317 317 317 317 317 317 316 316 315 314 314 314 314 314 314 315 315 315 315 315 316 316 315 315 315 315 314 312 311 310 309 308 307 306 306 306 305 305 305 304 303 305 307 307 307 307 308 308 308 307 306 307 306 307 306 305 305 306 306 306 305 305 305 306
316 317 317 317 316 315 316 318 320 322 319 316 319 318 316 317 317 318 319 318 316 317 317 316 316 316 316 316 316 316 316 315 315 315 314 314 314 315 315 315 315 315 316 317 317 316 315 314 312 311 310 309 308 307 306 306 305 305 304 304 304 302 302 303 305 306 306 306 307 307 307 306 306 305 305 305 304 303 303 303 304 305 304 304 304 305
316 317 317 316 316 316 317 318 319 320 319 318 318 317 317 317 317 318 320 319 317 317 316 316 316 316 316 316 316 317 316 315 315 315 314 314 315 316 315 315 315 316 316 316 315 312 311 311 310 309 309 307 306 306 306 305 304 304 303 303 302 301 301 302 303 304 305 305 306 306 306 306 305 304 304 303 303 302 302 302 303 303 303 303 303 304
318 318 318 317 316 315 317 318 319 320 320 320 319 317 317 318 317 317 319 318 317 317 316 316 316 316 317 316 316 317 316 315 315 315 314 314 314 315 315 315 315 314 314 313 311 309 307 307 307 307 306 305 305 304 304 304 303 303 302 302 301 300 300 301 302 303 303 303 304 305 305 305 305 304 303 303 303 303 302 303 303 303 303 303 304 304
318 318 318 318 316 316 318 319 319 320 320 320 321 318 316 317 318 317 317 318 318 317 316 316 315 316 316 316 316 317 316 315 315 315 315 315 314 314 314 314 314 313 311 310 308 307 306 305 304 304 304 304 304 303 303 303 302 302 301 301 300 300 299 299 301 302 302 303 303 303 304 304 304 304 304 304 304 303 302 302 303 303 302 303 303 303
316 316 316 317 316 316 318 319 319 320 318 318 319 316 314 316 318 317 318 319 318 317 316 316 315 316 316 315 316 317 316 316 315 315 316 317 317 316 314 313 314 314 310 306 304 303 303 302 302 303 303 303 303 303 302 302 301 301 301 300 300 299 299 299 299 300 301 302 302 303 303 303 304 303 304 304 304 303 302 302 302 301 301 300 300 299
315 315 315 317 317 316 318 320 319 318 316 316 316 315 315 317 317 317 318 318 317 317 317 316 316 316 316 316 316 316 315 315 316 316 316 315 317 316 312 307 305 305 303 302 301 300 300 300 300 302 302 302 302 301 301 301 300 300 299 299 299 299 298 299 299 300 300 301 301 302 302 302 303 303 303 303 303 302 302 301 301 301 300 299 297 295
315 315 315 317 317 317 317 318 319 318 316 315 315 315 316 317 317 317 315 315 317 319 318 317 317 317 317 317 317 316 315 315 316 317 315 315 318 317 311 304 302 301 300 299 299 298 299 299 299 300 300 300 300 300 300 300 300 299 299 298 298 298 298 298 298 299 299 300 300 300 301 301 301 301 301 301 300 300 300 299 298 298 297 296 294 292
315 316 316 316 317 317 317 317 318 319 316 314 315 316 316 316 315 314 312 313 316 317 318 318 318 317 317 317 316 317 316 315 314 314 313 314 315 312 306 303 302 301 300 299 298 298 299 299 299 298 297 297 297 298 299 299 299 298 298 298 297 298 298 297 298 298 298 299 299 299 299 300 300 300 300 299 299 299 298 297 296 295 294 293 291 289
314 315 316 316 316 317 317 317 317 317 315 313 314 315 315 314 314 313 313 313 315 316 316 317 317 316 316 316 315 315 315 314 313 312 312 311 308 305 302 301 300 299 298 298 296 296 298 299 297 295 295 295 296 297 297 298 298 297 297 297 297 297 297 297 297 297 297 297 297 298 298 298 298 298 298 298 297 297 296 295 294 292 291 291 290 288
314 314 315 315 315 315 316 314 312 313 313 312 314 315 314 314 315 317 317 315 314 314 314 315 317 315 313 313 314 313 313 313 310 309 310 308 304 302 300 299 298 298 297 296 295 295 297 297 295 294 293 293 294 295 296 297 298 297 296 297 297 297 297 296 296 296 296 296 296 296 296 296 296 296 296 296 296 295 295 294 292 290 289 289 288 287
312 313 314 314 313 314 314 311 310 311 311 312 314 316 314 314 315 316 318 317 316 314 312 313 317 315 310 311 312 312 311 311 309 307 308 306 302 300 299 298 297 297 296 294 294 294 294 294 293 292 292 292 293 295 296 297 297 297 296 297 297 296 296 296 296 295 295 295 295 294 294 294 293 293 293 293 293 293 293 293 291 289 288 287 286 286
310 311 313 313 313 314 315 312 311 311 311 311 314 314 313 313 312 312 315 318 316 312 310 311 313 311 308 308 311 311 309 308 307 307 305 303 301 299 298 297 296 295 294 293 293 293 293 293 292 292 292 292 292 294 295 296 296 296 296 296 296 295 295 295 295 295 294 294 293 293 293 292 292 291 291 291 291 291 291 291 290 289 287 287 285 285
310 311 311 312 313 313 312 311 311 311 311 312 313 312 311 311 310 309 309 309 307 306 305 304 305 305 306 307 308 309 307 305 305 306 304 301 300 298 297 296 295 294 293 292 292 293 293 292 291 291 291 290 291 293 294 295 295 295 295 295 294 294 295 294 294 294 293 292 292 291 291 290 290 290 289 289 289 288 288 289 289 288 288 288 287 286
310 311 311 312 313 312 310 310 310 310 311 311 311 310 311 311 311 308 305 304 305 305 304 302 301 302 305 306 305 307 308 306 304 304 302 300 299 297 295 295 294 293 292 291 291 292 292 290 290 290 289 289 291 292 293 294 294 294 294 294 294 294 294 294 293 293 292 291 291 290 289 289 289 288 287 288 288 287 287 288 288 288 288 288 288 287
309 311 311 312 313 313 311 310 310 311 311 310 310 311 311 311 311 309 307 307 307 307 306 306 303 300 301 303 303 305 307 305 303 302 301 299 297 295 294 293 292 291 290 289 290 290 289 289 289 288 288 288 290 292 292 292 292 292 293 293 293 293 293 293 293 292 291 290 290 289 288 288 287 287 286 286 286 286 286 286 287 286 286 286 287 286
310 311 310 311 313 313 312 312 311 312 312 310 309 310 310 311 311 310 309 309 307 304 304 307 308 305 302 300 300 303 305 303 301 301 300 297 295 294 293 292 292 291 290 289 289 288 287 287 287 287 286 287 289 290 290 290 290 291 291 291 291 292 292 292 292 291 290 289 289 289 288 288 287 287 286 286 286 285 285 285 285 286 286 285 285 286
Wind_Speed
8 10 10 12 13 14 15 16 17 13 10 12 12 12 11 10 7 7 6 5 3 4 9 12 14 15 14 13 13 13 10 9 10 11 11 10 9 9 9 10 11 11 10 10 13 16 20 21 20 20 20 19 21 22 22 24 25 25 24 25 24 23 21 21 20 19 19 19 18 17 17 17 17 17 16 17 17 16 16 16 15 16 16 16 15 15
8 12 14 16 17 17 18 17 17 15 12 12 13 11 11 11 9 5 4 6 6 4 8 11 15 16 14 14 13 12 12 11 11 12 12 13 12 10 11 12 11 9 8 9 12 15 18 20 21 21 20 21 22 23 24 24 25 25 25 25 25 24 23 22 22 22 22 20 19 19 18 18 18 18 18 18 18 17 17 17 17 17 17 17 17 16
9 12 16 19 18 18 18 18 18 16 13 12 10 9 8 9 8 5 5 8 6 4 6 9 12 14 15 16 15 14 14 12 12 13 12 13 12 11 11 11 10 9 9 11 12 15 18 20 22 22 21 22 23 23 24 24 24 26 26 27 26 25 25 23 23 24 23 21 20 19 18 19 18 18 19 19 18 18 18 19 19 19 19 19 18 17
9 11 16 17 17 18 18 18 18 13 11 11 9 8 8 8 7 6 5 8 7 6 6 9 10 12 14 15 16 16 16 15 13 14 13 12 12 12 12 10 10 11 11 12 13 15 18 20 21 22 22 22 23 22 24 25 25 26 28 28 27 26 26 25 24 25 23 21 21 19 18 19 19 18 19 20 20 20 20 20 20 20 20 20 18 18
7 6 14 17 16 18 17 16 17 12 10 10 10 10 9 9 9 6 2 5 6 8 8 9 9 10 12 15 16 15 16 18 17 16 15 13 13 12 11 10 10 12 12 12 13 14 17 20 22 24 24 23 24 24 26 27 27 27 28 28 27 26 26 25 25 25 22 20 21 19 18 20 20 19 19 20 22 23 22 21 21 21 21 21 20 18
7 10 17 18 14 15 16 16 17 14 10 9 10 11 10 10 9 7 3 2 4 6 6 7 7 6 6 12 13 11 14 18 18 17 18 15 13 12 11 11 11 11 11 11 12 13 16 19 21 23 24 24 25 27 28 29 29 29 28 27 27 25 25 25 25 25 23 21 23 22 22 23 23 21 20 20 22 22 22 21 18 18 20 22 21 19
7 14 18 17 15 16 16 15 17 15 10 9 7 10 13 11 8 7 5 3 4 5 2 5 7 6 5 8 10 8 11 17 18 18 17 14 13 12 11 11 11 11 11 10 11 11 14 17 19 21 24 26 27 28 28 29 30 30 28 27 28 26 25 25 25 26 24 22 24 25 24 25 25 24 22 20 21 20 20 19 15 16 18 20 21 20
9 16 17 18 17 14 14 13 15 15 11 7 6 8 12 11 9 7 5 5 5 6 3 6 8 7 9 8 7 9 10 13 16 17 15 14 14 13 12 12 12 12 11 10 10 11 13 16 19 22 24 27 29 28 27 28 29 30 29 29 29 28 26 25 25 27 26 24 25 26 26 27 27 26 23 21 21 21 20 18 17 19 20 20 21 21
13 17 17 19 16 11 13 13 12 14 11 4 6 6 9 9 8 6 7 7 3 4 7 8 6 6 8 5 4 9 12 12 14 15 14 14 15 15 14 13 13 13 12 12 11 12 14 17 20 22 23 26 28 26 27 30 29 28 29 28 28 28 28 27 27 28 28 26 25 26 27 28 27 25 23 20 21 22 21 21 20 21 21 20 20 22
9 14 17 17 13 11 13 12 12 15 11 4 6 5 4 6 5 4 6 4 1 4 8 7 6 6 8 6 6 8 9 11 11 12 13 13 14 14 14 13 12 11 11 11 12 12 14 18 20 21 21 22 23 26 28 28 27 26 26 27 28 28 28 27 28 30 29 28 26 25 27 27 26 24 23 21 21 22 22 23 23 22 21 21 21 21
4 7 12 11 9 11 13 12 12 14 11 10 8 7 5 3 2 1 3 1 2 7 6 8 11 8 7 5 6 7 7 8 9 9 11 13 14 14 13 12 11 10 9 10 10 11 13 15 17 17 18 19 20 25 27 26 26 26 25 27 29 29 27 26 28 30 30 30 28 26 26 26 26 25 24 23 23 24 24 24 24 23 23 23 22 19
7 7 8 5 5 11 12 8 5 6 11 11 7 8 7 2 2 1 3 3 6 6 1 4 9 9 9 4 2 5 5 6 8 9 10 12 13 12 11 11 11 10 9 8 8 9 10 11 12 15 18 18 18 22 26 27 27 26 26 27 27 28 28 26 27 29 30 31 31 29 27 26 27 26 25 25 24 25 26 25 24 24 24 22 21 22
7 7 7 5 4 11 14 8 4 5 9 8 7 9 7 4 4 4 4 4 7 5 2 1 4 8 11 8 8 11 10 8 9 9 10 11 13 12 9 10 10 8 7 7 7 8 8 8 11 14 17 18 19 22 25 26 25 25 25 26 27 28 29 27 27 29 30 31 31 31 29 26 27 28 27 26 24 24 26 26 25 26 27 24 24 26
6 3 6 8 5 12 16 11 6 6 8 9 10 10 8 6 5 7 6 4 6 4 5 5 3 7 9 6 10 13 11 10 10 11 12 11 11 9 5 4 4 2 3 4 5 5 6 5 6 9 11 15 19 21 22 25 26 26 25 25 27 28 28 28 28 28 29 31 31 31 30 27 27 28 28 27 26 25 27 28 26 28 31 30 29 29
8 2 8 12 6 13 18 13 10 9 8 9 8 7 8 6 5 6 5 6 6 2 6 8 4 5 4 2 1 4 3 5 7 9 10 8 7 6 4 3 3 3 3 3 3 4 4 3 2 3 5 9 14 17 18 21 25 26 25 27 28 28 27 29 30 29 29 30 30 30 30 29 28 28 28 28 27 26 28 28 27 29 32 34 33 30
8 2 9 9 3 14 20 10 9 12 7 4 3 6 7 5 5 4 1 3 3 1 4 7 4 5 3 4 6 7 6 6 6 8 9 9 8 7 6 6 5 5 4 3 3 4 4 4 4 6 8 9 11 15 18 21 24 27 27 27 28 28 27 28 30 30 29 28 27 28 30 30 29 29 27 27 28 29 28 27 29 28 28 33 34 31
9 4 9 8 6 16 17 11 14 13 8 4 4 6 3 1 3 5 1 2 1 5 5 6 6 7 6 9 10 12 13 10 8 8 9 11 12 10 8 7 6 5 4 4 4 4 5 6 7 10 11 12 12 13 17 21 23 26 25 23 24 24 24 26 29 28 27 27 27 27 29 29 29 29 28 27 29 31 29 27 29 27 24 30 35 33
8 5 2 5 10 10 4 11 17 9 6 8 7 7 5 4 3 4 4 3 3 7 6 7 9 8 6 6 3 8 13 11 9 9 8 9 10 10 10 9 7 4 4 5 6 6 6 6 8 10 11 12 12 13 14 17 19 22 22 21 21 22 23 25 26 26 26 26 27 27 28 29 29 29 29 28 30 32 29 27 29 27 23 28 34 34
9 7 3 2 5 4 1 8 14 3 1 3 5 9 7 3 5 5 5 5 6 7 5 6 10 8 8 7 3 6 8 6 7 9 9 9 9 9 9 8 6 2 3 4 6 6 6 6 7 9 9 9 10 11 11 12 14 17 19 18 19 20 21 21 21 23 24 24 26 27 26 28 29 29 29 29 31 31 29 29 30 28 26 28 32 34
8 6 3 1 1 4 3 6 10 5 1 1 3 8 7 5 5 7 6 3 4 6 5 5 7 7 8 10 10 12 10 7 9 8 8 11 10 6 5 4 3 1 2 2 2 3 3 4 5 6 7 8 9 10 10 10 10 12 14 14 16 16 16 17 18 20 22 22 22 24 26 28 30 30 30 31 31 31 30 30 31 30 29 28 31 34
7 4 6 3 1 5 5 5 10 11 7 5 6 10 9 4 1 3 5 4 3 5 5 6 7 6 3 6 9 12 11 11 11 9 8 7 4 1 0 1 1 2 2 2 2 2 2 2 4 4 4 5 6 7 8 8 7 8 10 12 14 14 14 15 16 18 21 21 21 24 28 30 31 32 31 31 31 31 30 31 32 30 29 29 31 34
6 5 8 7 4 5 3 1 4 8 10 9 7 8 9 7 4 3 6 6 5 5 5 5 8 6 2 4 5 7 8 9 8 8 7 4 1 1 1 1 0 2 2 3 3 3 3 3 3 3 3 3 3 3 5 6 6 6 9 10 11 13 15 15 16 17 20 20 22 25 28 29 30 31 30 30 31 31 29 29 31 31 29 30 32 34
4 6 8 8 5 3 2 3 3 1 5 9 7 7 9 7 7 8 7 6 6 7 5 4 8 5 5 6 4 5 4 3 1 3 6 4 2 1 1 1 2 3 3 2 3 3 3 3 3 2 2 3 3 3 4 5 6 7 8 8 9 11 13 13 14 16 18 20 22 24 26 26 27 28 29 29 29 30 29 28 29 30 31 32 33 34
5 6 8 7 3 3 4 3 3 4 1 7 8 9 11 11 11 8 3 2 5 7 6 4 8 5 5 6 4 3 2 1 1 3 5 4 2 1 2 3 3 3 2 2 3 2 3 3 3 3 4 4 5 5 6 6 7 7 8 9 9 9 10 10 11 12 14 18 21 22 23 24 26 28 29 31 31 30 30 29 29 29 31 32 33 33
4 6 8 8 5 2 2 2 3 2 5 8 10 12 14 16 15 6 1 1 4 7 9 8 10 7 3 4 3 3 3 3 5 5 3 2 2 1 2 3 3 3 2 3 3 3 4 4 4 5 5 6 6 6 7 7 7 7 8 9 9 10 10 10 11 11 11 13 18 22 24 24 26 28 29 30 31 31 30 30 30 30 31 32 33 33
4 7 7 8 9 8 7 7 6 6 6 6 10 14 15 17 17 9 3 4 6 7 9 8 10 8 2 4 3 4 5 7 7 4 2 3 3 3 3 3 2 2 2 3 3 3 4 4 4 4 6 6 7 7 8 7 7 6 7 7 8 9 10 10 11 11 11 11 14 18 22 24 25 26 27 28 28 29 29 30 30 30 31 32 33 34
3 7 7 9 12 8 4 5 7 8 7 7 10 12 11 11 13 8 5 8 10 7 7 10 15 13 6 6 7 7 9 10 7 4 4 4 4 4 4 3 2 1 2 3 3 4 3 3 3 4 5 6 7 7 8 8 8 7 7 8 8 8 8 9 10 11 12 12 13 14 17 21 23 24 24 25 26 26 27 28 29 30 30 31 32 34
4 7 9 12 14 9 7 9 12 14 13 14 15 14 13 12 11 9 9 14 14 8 10 16 19 20 17 10 8 8 10 9 6 5 5 4 4 3 3 3 2 2 3 3 3 3 2 2 2 3 5 6 6 7 7 8 10 9 8 8 9 8 8 9 10 12 13 14 15 15 16 17 20 21 22 22 23 24 25 26 27 28 29 30 31 32
5 8 12 12 10 8 11 13 15 16 14 16 18 19 18 19 19 17 17 20 18 12 14 17 16 19 21 13 10 10 9 8 7 5 3 2 2 1 2 3 4 3 3 2 1 1 1 2 2 3 5 6 7 8 9 10 12 12 10 10 11 11 11 11 11 12 14 15 16 16 15 15 17 19 21 21 21 21 22 23 24 26 27 28 29 31
5 6 10 11 7 6 10 14 16 16 14 14 18 20 19 20 22 21 21 24 21 16 20 19 14 18 18 9 8 10 9 7 4 4 2 1 2 3 4 5 5 5 5 3 1 1 1 2 2 3 5 7 9 10 11 11 14 16 15 13 13 15 16 14 13 13 14 15 15 15 15 16 17 19 20 21 21 22 22 23 24 25 26 28 29 31
6 7 10 11 6 3 5 10 15 15 14 15 17 19 20 20 21 23 23 21 17 18 25 21 14 17 13 5 7 9 8 7 3 3 4 5 5 7 7 8 9 7 5 4 3 3 3 3 3 4 5 8 10 11 12 13 15 18 18 15 14 17 18 16 14 14 15 15 15 16 16 17 18 19 20 21 22 23 24 24 25 26 27 28 29 30
7 7 10 10 7 4 5 10 14 12 10 10 13 17 22 22 21 22 21 17 15 19 22 16 13 15 8 3 7 9 8 10 8 7 9 8 8 9 10 10 10 9 7 6 5 4 4 4 4 5 6 8 10 12 13 14 15 17 19 17 15 17 19 18 15 15 16 16 15 16 16 16 17 18 19 20 21 23 23 24 24 25 26 27 28 30
9 7 8 10 8 5 7 10 10 9 6 6 12 20 26 26 21 17 15 17 19 18 14 11 14 14 3 5 4 7 8 11 11 10 11 11 11 11 11 12 10 8 8 7 6 5 4 4 4 6 7 9 12 13 14 15 16 17 18 18 17 17 19 19 17 16 16 17 16 16 16 16 16 17 18 19 20 21 22 22 23 24 26 27 28 30
12 10 7 9 6 5 9 9 8 6 7 10 11 18 24 23 21 18 16 20 21 17 14 15 16 11 4 5 5 7 8 11 11 11 12 11 11 13 15 15 12 9 8 7 7 6 4 4 5 7 10 11 12 13 13 13 15 15 16 17 17 17 19 20 19 18 18 18 17 16 16 16 16 17 18 18 19 20 21 22 23 24 25 27 28 30
14 11 7 6 5 6 8 9 7 10 13 7 5 13 20 20 21 20 19 20 22 22 23 23 20 14 9 7 7 7 9 10 10 12 13 12 12 13 14 14 12 10 9 7 6 6 6 6 7 8 10 11 11 12 12 12 13 13 13 15 16 16 19 21 21 20 19 18 18 17 17 17 17 18 18 18 19 20 20 21 22 23 25 27 28 30
13 10 6 4 4 6 7 8 9 9 7 3 2 9 15 16 18 18 17 20 25 24 22 23 24 20 14 13 10 8 8 8 9 12 13 13 14 15 14 13 11 11 11 8 4 4 6 8 9 9 9 9 8 10 12 12 13 13 14 15 15 16 19 20 21 20 19 19 18 18 17 17 18 18 19 19 19 20 20 21 22 23 24 26 27 28
11 9 6 4 3 5 7 8 8 4 3 7 9 11 15 15 17 18 14 16 20 21 20 21 22 18 15 15 14 9 6 6 8 11 13 16 18 16 13 13 11 10 12 9 4 3 5 9 10 10 10 9 9 10 12 13 13 14 15 15 14 15 18 20 20 21 20 19 19 19 18 18 18 18 19 19 20 20 21 21 22 23 25 26 26 27
8 7 8 7 3 4 7 7 6 6 8 13 15 17 17 12 12 13 9 11 14 19 20 19 18 16 14 14 14 9 4 5 11 10 10 15 17 15 12 13 12 12 13 12 9 6 6 8 9 10 11 11 10 11 12 12 13 14 15 15 14 13 16 19 20 20 20 19 19 19 19 18 18 18 19 20 20 21 21 21 22 23 24 25 25 25
7 5 5 7 4 4 8 6 6 10 11 7 9 15 16 11 12 13 5 11 11 18 19 19 17 15 14 14 15 9 5 7 12 7 3 6 9 10 11 11 10 11 11 9 7 7 6 6 7 8 8 8 8 10 11 12 13 14 14 15 14 12 13 17 19 18 18 18 18 19 19 18 19 19 19 20 20 21 21 21 22 22 22 22 22 23
8 5 6 8 6 8 11 7 6 8 7 4 10 15 16 16 17 13 7 10 10 17 19 19 17 17 16 17 15 10 9 11 9 2 3 4 4 3 3 3 3 3 4 4 5 6 6 6 6 5 5 5 5 7 9 11 12 12 12 13 13 12 12 15 17 17 17 17 18 18 19 19 19 20 20 20 20 20 20 20 20 20 21 21 21 22
6 6 7 7 7 10 12 10 7 5 4 7 10 14 18 18 14 11 9 5 8 13 16 18 19 18 17 15 11 8 11 14 7 3 5 5 5 4 3 3 2 1 1 2 4 5 5 6 6 5 4 4 5 6 8 11 12 11 11 12 13 12 12 13 14 16 17 17 18 18 18 19 20 20 21 20 20 19 19 20 20 20 21 21 21 22
6 7 7 6 7 9 9 7 6 6 5 11 10 12 18 15 8 8 4 2 5 7 7 11 15 14 12 11 10 9 12 12 6 5 6 5 5 4 3 3 3 2 2 2 2 2 2 3 3 3 3 3 4 6 8 11 12 11 11 11 11 11 11 11 12 14 15 17 17 17 18 18 19 19 19 20 19 19 19 19 19 20 21 21 22 23
8 9 8 8 8 8 8 8 8 9 8 15 13 10 11 8 4 5 4 3 3 6 7 7 9 8 8 9 9 10 10 8 4 5 5 4 4 4 4 3 4 4 3 3 4 3 2 4 5 5 4 3 3 5 7 10 11 10 9 9 9 9 10 10 11 12 13 15 16 16 17 17 17 18 19 19 19 19 19 19 19 20 20 21 22 23
8 9 8 8 9 10 10 11 7 3 7 14 12 8 7 3 0 6 7 4 3 4 6 6 6 7 8 8 8 8 8 5 4 5 5 4 4 5 4 4 4 4 4 3 4 3 5 6 8 9 8 6 5 5 7 9 9 9 8 7 7 8 8 9 10 11 12 13 14 15 15 15 16 17 18 18 18 18 19 19 19 20 21 22 23 24
13 13 5 4 9 10 6 4 2 1 10 13 8 8 12 7 2 2 6 7 4 4 5 5 6 7 7 6 5 5 5 4 5 5 5 5 5 5 5 4 4 4 5 5 5 5 7 8 9 10 9 8 7 7 8 7 7 8 8 6 5 6 7 8 9 10 11 12 12 12 12 13 14 14 15 16 17 18 19 20 20 20 21 23 24 26
11 12 4 1 5 8 4 2 2 3 11 12 4 5 13 11 2 1 4 6 4 4 4 4 4 6 7 6 5 4 4 5 6 5 5 6 6 5 5 5 5 5 5 6 6 7 9 10 11 11 10 9 8 8 8 6 5 7 6 5 5 6 7 8 9 10 10 10 10 10 11 12 12 13 14 15 16 17 19 20 21 21 21 23 25 26
5 11 8 3 6 8 8 7 7 6 10 11 3 1 7 7 2 2 3 3 3 3 4 3 3 5 6 6 6 5 4 5 6 5 4 5 6 6 6 6 6 5 6 6 7 8 10 10 11 10 10 9 9 9 9 8 7 7 6 6 7 7 8 8 9 10 10 10 9 10 10 11 12 13 14 14 16 17 18 20 21 22 23 25 26 25
5 7 8 8 9 7 5 5 9 9 10 10 5 3 5 7 5 2 2 2 4 4 4 3 4 4 5 6 6 5 5 6 7 6 5 5 5 5 5 6 6 6 6 7 9 10 10 11 11 10 10 9 9 10 10 10 10 9 8 8 8 7 7 8 8 8 9 9 9 9 10 10 11 11 13 14 16 16 17 20 22 23 24 25 26 26
6 7 10 11 8 4 3 3 8 8 8 9 7 5 5 9 10 6 3 3 4 5 5 4 3 3 3 4 4 6 7 6 6 6 6 5 5 5 5 5 7 7 7 8 10 11 11 12 12 12 11 11 11 11 12 12 11 10 9 9 8 7 7 8 7 7 8 8 7 8 9 9 9 9 10 13 14 15 15 18 20 22 23 24 24 25
8 10 11 10 10 11 10 9 10 8 6 8 8 8 9 11 11 8 5 3 3 5 6 6 4 3 3 2 1 5 7 6 6 7 7 5 6 6 6 7 7 7 8 9 10 11 12 12 12 13 13 13 13 13 13 13 12 11 10 9 8 7 7 8 8 8 7 7 6 6 7 7 8 8 8 9 12 13 13 15 17 20 21 21 22 23
12 13 12 11 11 10 7 9 10 8 6 9 12 14 12 9 9 10 9 7 5 5 6 6 5 4 3 2 2 2 5 6 6 7 7 6 7 8 8 8 8 8 9 9 10 12 12 11 12 12 12 13 14 15 14 14 13 11 10 10 9 8 7 8 8 8 7 6 5 5 6 5 6 8 8 8 9 11 12 13 15 17 19 20 20 22
Wind_Direction
175 176 192 198 189 185 187 197 210 225 222 205 212 223 224 228 226 210 195 155 142 250 255 254 259 262 264 259 252 251 229 215 239 245 244 245 236 224 214 213 213 215 213 206 199 192 192 195 194 196 198 199 202 204 206 207 208 208 208 207 210 211 207 206 205 202 203 205 206 207 210 212 215 216 215 215 217 218 220 218 214 212 209 210 211 211
188 196 202 199 190 184 188 199 210 218 217 211 220 225 227 237 239 220 178 152 151 226 256 256 261 260 260 261 257 253 239 227 234 241 243 243 239 229 220 217 214 211 202 195 191 188 190 193 193 194 196 198 199 203 205 206 207 208 209 209 209 208 207 206 205 202 202 204 204 205 207 209 212 214 214 216 218 220 222 221 218 216 214 213 212 213
198 212 203 194 192 190 191 199 206 212 212 216 224 224 229 235 241 242 180 158 164 210 259 261 262 263 260 257 254 250 247 242 236 237 242 243 242 236 226 220 211 203 199 197 189 186 189 192 192 193 195 198 199 202 205 206 206 207 209 210 209 207 205 206 206 204 205 205 204 204 206 207 210 214 216 219 222 223 223 222 221 219 218 217 215 216
195 209 194 188 193 194 196 200 202 208 212 218 222 219 231 231 235 246 184 169 184 209 262 279 274 269 265 260 252 243 244 249 242 235 237 237 239 240 234 227 213 203 203 203 194 188 190 191 192 196 197 198 199 201 203 205 206 207 210 210 209 208 206 206 206 206 206 209 209 209 211 211 213 218 221 223 225 225 224 223 222 220 219 219 218 218
186 173 177 183 189 193 198 198 198 205 210 215 222 221 230 231 234 250 180 168 208 225 240 265 280 270 254 248 245 235 229 238 243 237 232 228 228 235 236 231 222 213 210 207 202 193 188 190 194 198 198 197 199 202 203 204 205 207 209 210 209 209 208 207 208 207 205 206 208 209 213 214 217 220 220 221 223 223 222 221 220 219 218 218 218 219
188 159 171 181 181 190 198 197 198 203 210 215 219 223 236 244 239 238 231 216 263 255 212 218 268 275 240 239 242 235 220 226 234 232 227 223 218 220 225 225 222 222 220 218 214 197 187 191 194 196 198 199 201 203 204 203 205 207 208 208 207 208 209 208 208 206 203 202 204 205 207 211 214 216 216 218 219 219 219 218 218 218 216 216 216 217
183 169 174 176 175 189 197 198 197 195 213 226 200 203 226 243 243 232 237 232 265 291 148 185 254 282 285 267 255 248 235 227 227 224 219 218 216 212 214 217 216 220 220 222 222 206 193 191 191 196 199 199 203 205 202 203 205 206 206 206 206 206 208 208 205 204 203 204 205 206 208 211 213 215 216 217 217 217 216 216 216 216 216 214 214 215
162 172 175 173 177 188 194 202 196 190 216 225 157 182 213 226 233 230 238 240 262 311 300 217 237 273 283 275 247 239 244 239 230 223 214 213 217 213 210 210 210 214 212 212 215 209 203 196 193 198 199 201 206 204 199 201 204 204 205 205 204 206 208 207 204 203 204 204 207 209 212 214 215 216 216 214 215 217 216 216 216 217 216 213 214 216
159 174 174 173 180 190 198 205 185 184 214 200 135 188 209 213 231 238 241 249 296 327 274 234 219 253 267 261 217 219 233 241 236 231 226 220 218 215 212 209 205 209 209 208 209 207 206 203 200 202 202 204 207 203 201 204 204 202 203 203 203 206 207 206 204 204 204 204 207 210 213 216 216 217 217 213 212 214 214 216 216 215 215 213 213 215
164 177 174 176 186 192 197 198 177 188 209 151 137 179 190 206 230 248 239 245 342 275 257 238 215 248 274 259 227 220 228 236 235 235 234 229 223 215 209 209 206 206 209 210 212 211 207 205 205 204 203 205 206 207 207 206 204 201 201 203 205 206 206 205 207 207 206 204 206 211 213 214 215 215 214 211 210 209 211 214 215 213 212 210 208 207
130 160 175 182 192 191 192 188 180 193 181 129 137 147 127 168 172 208 232 179 255 253 245 225 219 242 281 256 218 227 228 224 227 231 233 232 228 216 205 205 206 204 207 208 212 217 211 206 204 201 203 204 204 208 208 206 206 203 200 203 206 207 207 206 206 207 207 205 207 212 215 214 215 215 211 210 210 208 208 210 212 212 208 205 204 201
122 147 170 165 193 186 175 165 141 157 149 131 144 145 122 124 123 162 198 174 233 246 239 210 209 222 246 239 197 242 238 227 232 234 236 237 235 225 204 198 204 203 205 203 205 214 210 203 197 195 202 201 198 203 206 206 206 203 201 203 205 207 207 206 205 206 207 206 207 212 217 216 217 217 213 212 210 207 206 206 209 210 204 200 202 205
144 161 152 120 208 183 154 132 92 124 153 151 161 159 152 154 158 197 192 196 234 224 107 160 191 223 245 249 250 253 251 247 241 237 243 246 246 242 216 201 207 202 195 194 199 209 205 203 200 198 201 200 199 203 205 205 204 203 203 203 205 208 207 205 206 206 206 207 208 211 215 217 219 219 218 217 215 210 206 203 205 205 199 197 203 208
148 170 157 147 190 181 162 158 163 172 179 175 169 171 177 166 177 207 194 215 248 208 163 158 170 252 264 263 248 249 253 253 245 240 250 253 253 261 248 215 224 211 187 189 197 209 207 207 209 206 203 201 206 208 206 208 208 207 206 205 208 210 207 205 206 207 207 208 209 209 211 215 218 220 219 219 219 214 209 206 206 206 203 204 209 212
159 178 180 172 173 181 185 187 170 150 158 178 178 184 194 179 188 209 196 215 233 190 164 161 168 248 262 22 293 259 262 260 259 253 257 260 254 265 279 258 253 251 227 201 211 231 225 221 227 230 223 210 214 216 213 213 213 212 211 209 211 211 206 205 207 206 207 209 208 208 209 212 216 218 218 219 220 216 213 210 209 209 209 212 216 216
174 170 169 175 191 185 189 184 137 128 136 186 193 196 212 213 210 221 242 217 211 185 182 184 227 261 277 318 291 267 247 220 232 249 251 255 249 245 253 248 235 226 214 191 207 243 239 225 220 228 234 228 221 220 220 221 220 219 218 214 214 213 207 206 207 207 206 206 206 206 207 209 213 215 215 217 218 215 212 212 211 211 214 216 217 216
182 160 153 171 195 187 184 160 145 146 149 168 204 204 197 339 244 222 194 81 52 271 232 191 237 265 279 282 258 244 248 226 206 223 237 245 245 244 249 248 238 219 192 179 197 228 231 216 213 215 220 221 217 217 221 225 226 225 223 218 216 214 209 207 207 205 204 203 202 203 204 206 209 212 212 214 216 213 211 213 213 213 214 217 218 216
160 116 96 178 176 181 187 155 160 163 144 156 195 190 128 40 302 240 222 190 201 253 244 200 231 251 253 268 222 214 245 243 214 211 225 241 243 244 250 253 255 236 177 178 194 213 223 217 215 213 212 215 214 215 220 225 228 228 226 222 218 214 211 208 206 205 204 201 201 202 204 206 208 209 210 213 215 212 211 213 213 211 213 217 218 215
131 100 19 290 162 152 6 162 168 173 49 162 187 172 162 210 220 201 220 227 213 235 257 226 237 249 229 233 234 214 234 253 237 214 212 231 235 235 244 250 260 253 172 187 197 203 210 210 210 208 208 213 213 215 219 221 225 227 226 224 221 218 215 211 208 207 206 201 202 205 207 208 209 210 210 212 213 211 210 212 212 210 213 216 214 211
135 120 140 295 356 147 156 177 178 172 116 278 181 176 197 234 219 204 208 228 226 233 267 258 244 248 227 220 229 231 229 241 252 233 213 228 233 229 242 253 264 275 235 232 220 212 218 218 222 221 216 217 217 219 221 218 220 224 225 223 221 219 217 213 210 209 207 204 205 209 210 210 210 211 211 213 212 210 211 212 210 211 214 215 210 208
149 131 135 137 304 175 175 197 190 179 170 179 183 186 195 199 216 231 214 219 242 238 259 271 259 255 221 195 211 222 227 233 246 255 239 230 229 191 270 291 303 306 296 311 331 321 310 286 264 249 228 218 216 215 217 216 218 224 225 225 221 216 214 213 211 212 213 212 214 215 215 214 213 213 214 214 213 212 213 212 211 214 215 212 208 208
157 137 131 145 186 185 176 186 186 184 182 184 190 188 185 180 174 196 212 208 214 235 243 262 270 263 162 153 186 194 216 231 241 261 261 246 265 9 53 94 238 279 283 295 310 310 310 309 290 264 224 206 205 206 214 214 213 218 220 222 220 215 216 214 213 216 219 219 220 220 219 218 216 215 213 212 212 212 212 212 212 215 214 210 210 212
103 113 130 146 162 150 93 56 48 49 194 196 208 204 191 189 193 201 214 197 190 226 247 283 283 272 134 148 171 162 189 228 255 274 269 261 262 295 354 19 272 268 270 265 273 281 277 277 278 265 224 204 202 205 210 207 205 206 205 208 211 212 215 212 210 217 220 221 221 221 220 219 217 215 213 213 214 213 214 215 216 217 216 213 214 215
94 109 126 125 107 51 50 64 46 22 281 202 210 213 201 200 205 208 229 199 193 215 215 234 261 252 134 146 159 125 116 70 274 247 252 262 280 315 299 301 285 274 280 263 246 238 231 222 214 220 218 205 198 198 200 200 202 202 198 199 202 206 211 207 206 216 221 222 223 222 221 222 221 220 220 220 220 220 220 220 219 219 218 216 217 216
147 140 137 128 136 138 114 153 185 209 227 211 204 207 204 205 205 196 19 263 222 219 205 214 249 249 139 125 130 107 127 214 238 235 232 252 272 284 264 264 265 266 276 269 249 230 219 211 200 201 202 200 195 193 197 200 202 205 203 199 198 201 205 204 204 212 218 219 222 224 224 225 224 223 223 223 224 224 224 222 220 220 218 217 218 216
146 156 152 144 161 175 180 190 188 185 200 201 199 203 204 207 206 195 196 225 224 221 206 216 253 256 144 132 180 167 181 219 227 214 213 240 247 251 244 242 244 256 279 277 268 251 231 219 207 198 195 196 193 189 192 199 204 213 217 211 206 203 203 204 206 210 214 216 219 222 224 225 225 225 225 226 226 225 224 222 220 218 218 218 218 215
124 167 173 168 176 178 155 143 123 119 137 170 192 198 194 201 210 206 208 223 225 227 223 230 245 252 231 183 184 183 198 215 210 182 197 215 219 229 235 242 243 237 259 264 254 242 233 226 216 212 210 206 198 190 188 192 200 213 225 225 222 218 214 215 216 217 219 220 221 224 224 224 225 226 228 227 227 227 226 224 221 219 219 219 218 215
132 180 183 179 184 178 146 142 139 139 155 175 183 186 182 183 197 204 209 222 222 220 236 233 233 247 251 226 196 194 200 207 207 195 197 195 193 211 231 253 262 243 229 228 232 235 244 251 218 209 216 214 209 202 193 197 206 211 219 224 225 225 225 230 235 233 230 229 230 232 233 230 226 226 228 229 229 229 227 225 223 221 220 219 218 216
147 190 187 178 174 164 162 163 158 159 170 179 181 185 186 185 193 202 213 223 217 209 233 235 226 240 249 237 219 219 211 209 208 195 174 136 158 225 273 285 289 284 261 249 255 270 300 294 243 208 211 207 207 209 202 205 214 215 215 219 221 225 228 236 244 241 236 235 235 235 235 233 228 225 227 229 230 230 229 227 224 222 221 219 217 214
168 187 176 171 158 149 167 165 163 171 175 179 187 190 188 189 196 204 216 224 220 219 237 240 234 245 251 244 234 234 224 217 188 134 138 188 231 254 265 265 261 258 257 267 292 250 240 256 236 215 212 207 205 208 206 206 214 219 220 218 219 224 227 233 240 238 235 237 236 233 231 228 225 222 222 224 226 228 228 226 223 221 220 217 214 210
191 177 159 164 157 143 178 166 167 177 178 180 191 192 190 193 200 209 219 224 218 226 239 242 249 260 262 243 240 243 229 218 178 143 214 229 240 250 254 259 260 254 242 235 224 212 201 208 220 216 216 216 211 208 209 214 219 223 224 220 220 223 223 226 231 232 233 236 237 235 232 228 224 220 218 218 218 219 220 221 219 218 217 215 211 208
190 172 156 166 175 183 183 171 170 173 171 179 191 193 194 198 204 210 217 215 206 219 234 238 244 257 256 175 228 243 225 219 219 225 243 247 241 241 242 247 255 257 248 232 216 206 194 195 212 213 214 220 219 215 216 221 224 226 225 222 221 222 220 219 223 226 228 232 237 237 234 231 227 222 220 218 217 216 216 216 216 215 214 212 210 207
184 175 160 172 183 175 164 166 160 142 142 199 204 197 198 202 206 211 215 215 213 217 226 225 230 241 224 116 213 231 203 211 227 236 246 252 251 253 254 251 248 246 242 235 225 214 204 200 208 218 227 232 231 230 230 227 226 228 229 226 224 222 216 214 216 221 222 226 231 235 233 231 228 225 223 221 219 218 216 214 214 213 211 209 208 206
181 181 172 174 171 146 147 143 128 144 199 221 208 197 199 201 201 206 213 214 213 217 224 229 235 234 175 145 207 221 204 209 224 232 234 240 246 252 256 256 256 250 239 233 225 215 207 212 221 231 240 244 242 238 234 228 225 228 230 227 224 220 215 212 213 217 219 220 224 229 231 229 227 225 225 222 220 219 218 215 213 210 208 206 203 200
175 177 175 170 148 136 144 137 147 204 219 211 164 181 195 199 200 209 220 215 210 215 223 233 242 236 220 223 226 223 223 220 225 234 232 231 236 242 247 249 250 252 253 248 238 231 226 226 231 239 247 251 248 236 224 216 214 217 221 221 221 218 215 213 213 213 215 217 220 223 226 227 225 223 223 222 219 216 214 213 212 208 205 204 201 198
170 170 167 152 133 136 148 163 190 219 218 178 137 168 177 190 199 207 225 224 214 215 219 229 239 237 236 248 244 230 234 232 234 238 231 228 233 237 244 248 245 249 257 259 246 224 223 228 230 236 243 247 243 232 222 212 205 205 209 213 215 215 212 211 212 212 212 214 216 221 224 223 221 220 221 221 217 213 209 208 207 207 205 202 200 198
171 164 150 140 150 155 164 189 216 265 266 226 223 186 170 186 195 196 220 231 216 212 218 227 235 235 235 244 246 240 231 234 252 247 227 226 235 235 239 250 255 258 263 268 263 204 208 225 227 227 228 224 222 226 224 213 201 195 196 200 204 208 207 207 210 212 211 210 213 218 221 221 219 218 218 218 215 212 210 207 205 204 202 200 198 199
168 162 156 158 163 157 162 185 218 244 244 231 214 188 176 183 179 173 210 244 211 201 212 223 229 229 228 237 242 233 196 225 256 252 217 218 230 232 235 245 250 254 261 267 268 256 235 226 218 216 217 211 207 213 216 211 200 188 185 191 196 201 203 206 209 210 210 210 211 213 216 219 220 219 218 217 216 213 210 208 207 206 204 203 203 204
175 166 163 161 147 156 173 186 201 217 237 233 176 164 162 149 124 127 201 254 207 185 200 213 217 217 219 231 233 212 177 228 250 251 171 185 207 215 225 233 238 247 260 272 277 275 264 239 220 217 216 207 201 203 205 205 198 186 181 187 192 196 201 206 209 209 209 210 212 212 214 218 220 220 220 220 220 217 211 208 208 208 207 208 210 211
190 182 177 178 179 178 184 199 212 224 242 204 151 152 153 142 127 133 211 247 187 175 192 200 205 212 216 223 225 202 196 228 240 206 110 127 124 144 211 225 228 258 286 297 284 274 264 251 241 235 227 214 205 200 197 195 191 184 181 184 188 192 200 206 207 208 209 210 211 213 217 220 220 221 222 223 223 221 217 214 212 212 212 212 213 214
189 189 188 192 194 188 192 208 223 238 226 179 168 156 145 139 143 169 210 223 158 174 191 188 194 209 213 214 217 205 217 233 230 131 124 128 110 102 90 83 93 102 321 291 277 269 252 238 229 221 217 218 214 204 195 189 183 178 179 182 187 194 200 204 204 204 207 209 210 214 218 220 222 223 224 224 223 222 221 221 221 221 219 216 214 212
174 184 195 206 200 195 204 216 239 260 205 165 161 154 148 150 175 196 197 80 125 158 170 175 190 205 206 205 208 212 229 239 223 151 135 130 130 133 117 104 105 88 49 354 327 307 244 211 193 181 181 198 200 196 192 186 178 174 176 182 189 196 197 198 197 198 201 204 207 212 216 219 222 223 223 224 223 222 222 223 224 224 220 216 211 207
172 173 190 203 194 194 207 211 234 255 195 152 143 159 169 169 172 153 119 67 144 156 150 169 192 196 192 199 209 219 230 232 191 147 134 122 118 113 105 103 95 79 64 46 33 42 92 102 100 96 86 94 136 165 180 180 172 166 169 175 184 192 196 197 198 198 199 201 204 209 214 218 220 221 221 221 221 220 220 220 220 217 213 209 205 200
177 180 191 196 187 190 201 205 219 244 156 150 147 159 182 214 157 144 141 137 180 176 160 173 194 192 190 197 207 217 219 197 149 129 120 112 107 107 104 96 93 92 87 72 59 72 95 98 93 85 74 75 97 131 160 171 167 158 157 166 183 196 200 200 200 199 198 199 203 207 211 214 216 217 217 217 217 215 214 213 212 209 207 205 202 198
193 190 188 195 199 201 196 199 249 110 148 164 166 158 171 192 262 158 141 138 171 196 166 170 192 190 187 194 195 204 208 178 147 135 131 127 119 114 108 97 87 80 75 71 70 80 92 96 95 91 83 79 92 121 144 159 161 152 150 162 185 196 195 192 191 190 190 194 198 203 205 207 209 213 213 214 214 212 210 209 205 202 202 202 201 199
197 193 204 312 210 221 229 183 211 170 159 165 171 176 180 183 195 191 155 138 156 178 151 146 173 171 170 176 173 184 200 176 149 136 129 124 118 117 116 109 99 91 89 86 83 91 101 101 99 98 94 86 92 113 124 127 132 138 144 153 161 165 173 179 178 177 180 186 191 196 200 200 201 205 208 210 212 212 212 211 205 200 200 200 200 201
205 199 209 201 178 207 223 186 157 167 175 169 157 225 192 187 186 192 171 130 113 127 127 115 111 136 157 167 169 175 175 154 144 137 124 124 132 138 135 127 118 110 104 103 105 111 112 108 104 102 96 88 90 102 109 108 109 118 129 136 140 150 161 166 167 169 172 178 183 188 193 195 197 200 202 205 207 209 212 212 208 204 203 202 201 202
193 184 196 204 189 192 221 174 151 169 190 182 168 171 183 190 196 180 103 104 114 109 108 107 100 121 150 161 164 157 146 146 151 143 130 131 136 135 132 130 128 119 110 114 123 124 119 115 115 112 103 96 99 106 110 110 109 114 123 129 135 147 156 155 158 163 163 167 175 180 184 191 196 198 200 203 205 207 211 214 212 211 212 212 209 207
131 160 186 200 199 204 253 193 157 168 200 205 199 197 193 196 195 177 127 124 132 116 110 103 78 85 132 146 151 150 147 149 145 132 128 132 129 125 125 121 116 112 111 117 122 123 122 121 121 117 111 109 114 116 114 112 113 118 124 128 133 142 149 149 149 151 153 160 168 173 179 189 194 196 202 209 209 210 216 220 219 219 222 224 222 218
149 187 190 187 201 216 217 195 167 166 191 204 204 212 215 205 192 173 153 155 157 142 133 119 91 61 56 56 112 157 151 141 132 131 128 122 121 124 121 114 109 101 99 105 109 110 112 114 116 114 111 113 118 118 113 111 113 118 122 127 130 132 138 143 142 141 146 155 161 170 179 189 196 200 209 218 217 217 225 231 229 227 228 230 231 228
188 195 186 190 213 218 184 164 173 184 183 183 195 207 211 198 181 180 185 185 167 149 142 131 120 127 126 73 37 118 135 132 134 132 119 106 109 112 108 108 109 103 96 98 102 102 101 104 108 106 106 112 117 115 111 109 109 112 118 122 123 121 124 131 134 134 138 147 156 169 179 189 203 209 215 225 227 227 233 242 244 241 237 236 238 236